Погода в Фучжоу

Китай     27°59′21″N   116°21′28″E
темп.,
°C
ветер,
м/с
пор.,
м/с
влажн.,
%
обл.,
%
осадки,
мм/ч
давл.,
гПа
погр.,
м
21 января, чт
чт2123:00+13ссв22740 0.0 102023
02:00+12ссв23820 0.0 101934
05:00+11ссв118518 0.0 101922
08:00+12ссв118331 0.0 102047
11:00+16св11640 0.0 1020436
14:00+20ссв22545 0.0 1017781
17:00+17с575970 0.0 1017307
20:00+14с597275 0.0 1018351
22 января, пт
пт2223:00+13с488083 0.0 1019411
02:00+12ссз368789 0.0 1019350
05:00+12ссз3687100 0.1 1018415
08:00+11ссз3688100 1.4 1020397
11:00+13с3583100 0.0 1019468
14:00+13с4680100 0.0 1016487
17:00+13ссз578098 0.0 1015641
20:00+12ссз489199 2.1 1017497
23 января, сб
сб2323:00+12сз3593100 3.9 1018371
02:00+11сз3794100 6.7 1018396
05:00+11сз3594100 0.6 1017336
08:00+11с2593100 0.6 1020320
11:00+13с2483100 0.0 1020518
14:00+16ссв336181 0.0 10181069
17:00+15с356459 0.0 1018486
20:00+12с337229 0.0 102056
24 января, вс
вс2423:00+11св12790 0.0 102022
02:00+10зсз11850 0.0 101922
05:00+9сз01890 0.0 101922
08:00+10в11870 0.0 102024
11:00+15вюв23710 0.0 1019477
14:00+19всв23580 0.0 1017859
17:00+19ссв35630 0.0 1015181
20:00+15всв36800 0.0 1017150
25 января, пн
пн2523:00+14св238233 0.0 101784
02:00+14в358267 0.0 1017143
05:00+14вюв478364 0.0 1017164
08:00+13в348455 0.0 1018101
11:00+16ююв127767 0.0 1018112
14:00+16сз117683 0.0 101565
17:00+18с457179 0.0 1015146
20:00+15с487889 0.0 1017279